Asheboro, NC

5:30 PM EDT on October 17, 2017 (GMT -0400)
Asheboro Municipal

Weather History for KHBI - March, 2013

Change the Weather History Date:

Saturday, March 16, 2013

  Actual Average Record
Temperature  
Mean Temperature 64 °F -  
Max Temperature 76 °F 61 °F 86 °F (1945)
Min Temperature 53 °F 39 °F 21 °F (1970)
Growing Degree Days 14 (Base 50)    
Moisture  
Dew Point 41 °F    
Average Humidity 44    
Maximum Humidity 64    
Minimum Humidity 29    
Precipitation  
Precipitation 0.00 in - - ()
Sea Level Pressure  
Sea Level Pressure 29.83 in    
Wind  
Wind Speed 9 mph (SSW)    
Max Wind Speed 18 mph    
Max Gust Speed 28 mph    
Visibility 10 miles    
Events Rain    
Averages and records for this station are not official NWS values.
T = Trace of Precipitation, MM = Missing Value Source: NWS Daily Summary

Daily Weather History Graph

Daily Weather History Graph

Search for Another Location

Airport or City:

Trip Planner

Search our weather history database for the weather conditions in past years. The results will help you decide how hot, cold, wet, or windy it might be!

Date:

Astronomy

Mar. 16, 2013 Rise Set
Actual Time 7:28 AM EDT 7:28 PM EDT
Civil Twilight 7:03 AM EDT 7:53 PM EDT
Nautical Twilight 6:33 AM EDT 8:23 PM EDT
Astronomical Twilight 6:03 AM EDT 8:53 PM EDT
Moon 10:07 AM EDT (3/16) No Moon Set
Length of Visible Light 12h 50m
Length of Day
11h 59m
Waxing Crescent, 23% of the Moon is Illuminated
Mar 16
Waxing Crescent
Mar 19
First Quarter
Mar 27
Full
Apr 3
Last Quarter
Apr 10
New

Hourly Weather History & Observations

Time (EDT) Temp. Dew Point Humidity Pressure Visibility Wind Dir Wind Speed Gust Speed Precip Events Conditions
12:15 AM 54.5 °F 35.2 °F 48% 29.92 in 10.0 mi South 6.9 mph - N/A   Clear
12:35 AM 54.3 °F 35.6 °F 49% 29.92 in 10.0 mi South 6.9 mph - N/A   Clear
12:55 AM 54.3 °F 35.6 °F 49% 29.91 in 10.0 mi South 8.1 mph - N/A   Clear
1:15 AM 54.0 °F 36.1 °F 51% 29.91 in 10.0 mi South 6.9 mph - N/A   Clear
1:35 AM 54.0 °F 36.5 °F 52% 29.90 in 10.0 mi South 6.9 mph - N/A   Clear
1:55 AM 53.8 °F 36.9 °F 53% 29.89 in 10.0 mi South 5.8 mph - N/A   Clear
2:15 AM 53.8 °F 37.4 °F 54% 29.89 in 10.0 mi South 4.6 mph - N/A   Clear
2:35 AM 54.1 °F 37.8 °F 54% 29.89 in 10.0 mi South 5.8 mph - N/A   Scattered Clouds
2:55 AM 54.9 °F 37.9 °F 53% 29.89 in 10.0 mi SW 6.9 mph - N/A   Scattered Clouds
3:15 AM 54.0 °F 38.1 °F 55% 29.88 in 10.0 mi SSW 6.9 mph - N/A   Scattered Clouds
3:35 AM 54.0 °F 38.3 °F 55% 29.87 in 10.0 mi SSW 6.9 mph - N/A   Clear
3:55 AM 54.0 °F 38.3 °F 55% 29.87 in 10.0 mi SSW 8.1 mph - N/A   Clear
4:15 AM 53.6 °F 38.5 °F 57% 29.87 in 10.0 mi SSW 6.9 mph - N/A   Clear
4:55 AM 54.5 °F 39.0 °F 56% 29.85 in 10.0 mi SSW 9.2 mph - N/A   Clear
5:15 AM 54.7 °F 39.4 °F 56% 29.85 in 10.0 mi SSW 8.1 mph - N/A   Clear
5:55 AM 54.9 °F 40.1 °F 58% 29.85 in 10.0 mi SSW 8.1 mph - N/A   Clear
6:35 AM 55.4 °F 40.5 °F 57% 29.86 in 10.0 mi SSW 6.9 mph - N/A   Clear
6:55 AM 55.4 °F 40.8 °F 58% 29.87 in 10.0 mi SSW 8.1 mph - N/A   Clear
7:15 AM 55.2 °F 41.0 °F 59% 29.87 in 10.0 mi SSW 5.8 mph - N/A   Clear
7:35 AM 54.9 °F 41.2 °F 60% 29.88 in 10.0 mi SSW 6.9 mph - N/A   Clear
7:55 AM 55.4 °F 41.4 °F 59% 29.87 in 10.0 mi South 8.1 mph - N/A   Clear
8:15 AM 56.3 °F 41.9 °F 59% 29.87 in 10.0 mi SSW 11.5 mph - N/A   Clear
8:55 AM 57.6 °F 42.1 °F 56% 29.87 in 10.0 mi SSW 9.2 mph - N/A   Scattered Clouds
9:15 AM 58.1 °F 42.3 °F 56% 29.87 in 10.0 mi SSW 10.4 mph - N/A   Scattered Clouds
9:35 AM 58.3 °F 42.3 °F 55% 29.87 in 10.0 mi SSW 10.4 mph - N/A   Scattered Clouds
9:55 AM 59.0 °F 42.4 °F 54% 29.87 in 10.0 mi SSW 9.2 mph - N/A   Unknown
10:15 AM 59.9 °F 42.8 °F 53% 29.87 in 10.0 mi SSW 9.2 mph 16.1 mph N/A   Clear
10:35 AM 61.2 °F 42.8 °F 51% 29.86 in 10.0 mi SSW 12.7 mph - N/A   Clear
10:55 AM 63.3 °F 43.0 °F 47% 29.85 in 10.0 mi SSW 15.0 mph - N/A   Clear
11:15 AM 63.0 °F 43.2 °F 48% 29.84 in 10.0 mi SSW 10.4 mph - N/A   Clear
11:35 AM 64.9 °F 43.0 °F 45% 29.84 in 10.0 mi SSW 12.7 mph - N/A   Clear
11:55 AM 66.7 °F 42.8 °F 42% 29.84 in 10.0 mi SSW 15.0 mph 21.9 mph N/A   Clear
12:15 PM 68.2 °F 42.3 °F 39% 29.83 in 10.0 mi SW 15.0 mph 23.0 mph N/A   Clear
12:35 PM 68.9 °F 42.3 °F 38% 29.82 in 10.0 mi SSW 13.8 mph 21.9 mph N/A   Clear
12:55 PM 70.0 °F 42.1 °F 36% 29.81 in 10.0 mi SW 16.1 mph 25.3 mph N/A   Clear
1:15 PM 70.9 °F 42.1 °F 35% 29.81 in 10.0 mi SW 15.0 mph 20.7 mph N/A   Clear
1:35 PM 72.5 °F 41.9 °F 33% 29.80 in 10.0 mi SSW 17.3 mph 24.2 mph N/A   Clear
1:55 PM 73.4 °F 42.1 °F 32% 29.80 in 10.0 mi SSW 18.4 mph 23.0 mph N/A   Clear
2:15 PM 73.9 °F 42.4 °F 32% 29.78 in 10.0 mi SSW 13.8 mph 21.9 mph N/A   Clear
2:35 PM 74.7 °F 42.4 °F 31% 29.77 in 10.0 mi SSW 12.7 mph 19.6 mph N/A   Clear
2:55 PM 75.2 °F 42.4 °F 31% 29.76 in 10.0 mi SW 9.2 mph 21.9 mph N/A   Clear
3:15 PM 75.6 °F 42.3 °F 30% 29.76 in 10.0 mi SSW 17.3 mph 27.6 mph N/A   Clear
3:35 PM 76.1 °F 42.8 °F 30% 29.75 in 10.0 mi SSW 15.0 mph 21.9 mph N/A   Clear
3:55 PM 75.6 °F 42.4 °F 31% 29.74 in 10.0 mi SSW 18.4 mph 24.2 mph N/A   Clear
4:15 PM 75.7 °F 42.3 °F 30% 29.74 in 10.0 mi SSW 13.8 mph 21.9 mph N/A   Clear
4:35 PM 75.9 °F 42.3 °F 30% 29.74 in 10.0 mi SW 12.7 mph 19.6 mph N/A   Clear
4:55 PM 75.7 °F 41.9 °F 30% 29.74 in 10.0 mi SW 13.8 mph 19.6 mph N/A   Clear
5:15 PM 75.4 °F 41.5 °F 30% 29.73 in 10.0 mi SW 15.0 mph 21.9 mph N/A   Clear
5:35 PM 76.1 °F 41.5 °F 29% 29.72 in 10.0 mi SW 17.3 mph 23.0 mph N/A   Clear
5:55 PM 75.6 °F 41.7 °F 30% 29.71 in 10.0 mi SSW 15.0 mph 23.0 mph N/A   Clear
6:15 PM 75.6 °F 42.1 °F 30% 29.72 in 10.0 mi SW 16.1 mph 23.0 mph N/A   Clear
6:35 PM 75.4 °F 41.9 °F 30% 29.72 in 10.0 mi SW 17.3 mph 24.2 mph N/A   Clear
6:55 PM 74.8 °F 42.1 °F 31% 29.73 in 10.0 mi SW 18.4 mph 24.2 mph N/A   Clear
7:15 PM 74.3 °F 42.1 °F 31% 29.74 in 10.0 mi SW 13.8 mph 21.9 mph N/A   Clear
7:35 PM 73.6 °F 41.9 °F 32% 29.75 in 10.0 mi SW 9.2 mph 17.3 mph N/A   Clear
7:55 PM 73.0 °F 41.4 °F 32% 29.76 in 10.0 mi SW 11.5 mph 17.3 mph N/A   Clear
8:15 PM 72.3 °F 41.0 °F 32% 29.78 in 10.0 mi SW 9.2 mph - N/A   Clear
8:35 PM 71.6 °F 40.5 °F 32% 29.79 in 10.0 mi SW 8.1 mph - N/A   Clear
8:55 PM 71.6 °F 40.3 °F 32% 29.82 in 10.0 mi WSW 5.8 mph - N/A   Scattered Clouds
9:15 PM 71.2 °F 41.5 °F 34% 29.83 in 10.0 mi WSW 6.9 mph - N/A Rain Light Rain
9:35 PM 70.7 °F 40.5 °F 33% 29.84 in 10.0 mi NW 3.5 mph - N/A   Mostly Cloudy
9:55 PM 69.3 °F 41.9 °F 37% 29.85 in 10.0 mi Calm Calm - N/A   Scattered Clouds
10:35 PM 62.8 °F 43.9 °F 50% 29.87 in 10.0 mi Calm Calm - N/A   Clear
10:55 PM 61.3 °F 44.2 °F 53% 29.87 in 10.0 mi Calm Calm - N/A   Clear
11:15 PM 59.5 °F 44.8 °F 58% 29.87 in 10.0 mi Calm Calm - N/A   Clear
11:35 PM 57.7 °F 45.5 °F 64% 29.88 in 10.0 mi Calm Calm - N/A   Clear
11:55 PM 57.6 °F 44.6 °F 62% 29.88 in 10.0 mi Calm Calm - N/A   Clear